Location: Berlise
(49.6641°N, 4.1077°E)
Time: 01:27:33
(UTC+00:00)

Meteor 1-11 - Pass Details

Date: 27 January 2021
Orbit: 840 x 887 km, 81.2° (Epoch: 28 February)

Event Time Altitude Azimuth Distance (km) Brightness Sun altitude
Rises 05:36:29 0° 344° (NNW) 3,411 7.1 -17.1°
Reaches altitude 10° 05:38:56 10° 341° (NNW) 2,470 6.4 -16.7°
Maximum altitude 05:44:23 57° 264° (W) 990 4.2 -15.8°
Drops below altitude 10° 05:49:49 10° 187° (S) 2,458 6.7 -14.9°
Sets 05:52:15 0° 184° (S) 3,392 7.4 -14.6°
